AirNav   Air Wisconsin pilot careers
 
 1300 users online  

2M4 G V Montgomery Airport
Forest, Mississippi, USA

GOING TO FOREST?


FAA INFORMATION EFFECTIVE 26 APRIL 2018

Location

FAA Identifier: 2M4
Lat/Long: 32-21-17.8000N / 089-29-17.4000W
32-21.296667N / 089-29.290000W
32.3549444 / -89.4881667
(estimated)
Elevation: 518.3 ft. / 158.0 m (surveyed)
Variation: 02E (1985)
From city: 1 mile S of FOREST, MS
Time zone: UTC -5 (UTC -6 during Standard Time)
Zip code: 39074

Airport Operations

Airport use: Open to the public
Control tower: no
ARTCC: MEMPHIS CENTER
FSS: GREENWOOD FLIGHT SERVICE STATION
NOTAMs facility: GWO (NOTAM-D service available)
Attendance: UNATNDD
Wind indicator: lighted
Segmented circle: yes
Lights: MIRL RWY 16/34 OPS 1700-2200; AFT 2200 ACTVT - CTAF.
Beacon: white-green (lighted land airport)
Operates sunset to sunrise.

Airport Communications

CTAF/UNICOM: 122.8

Nearby radio navigation aids

VOR radial/distance  VOR name  Freq  Var
MHZr100/31.3MAGNOLIA VORTAC113.2001W
MEIr263/34.7MERIDIAN VORTAC117.0005E

Airport Services

Parking: tiedowns
Airframe service: NONE
Powerplant service: NONE
Bottled oxygen: NONE
Bulk oxygen: NONE

Runway Information

Runway 16/34

Dimensions: 3602 x 75 ft. / 1098 x 23 m
Surface: asphalt, in excellent condition
Weight bearing capacity: 
Single wheel: 25.0
Runway edge lights: medium intensity
RUNWAY 16  RUNWAY 34
Latitude: 32-21.582278N32-21.011120N
Longitude: 089-29.386510W089-29.194222W
Elevation: 511.2 ft.514.0 ft.
Gradient: 0.3%0.3%
Traffic pattern: leftleft
Markings: basic, in good conditionbasic, in good condition
Touchdown point: yes, no lightsyes, no lights
Obstructions: 50 ft. trees, 1300 ft. from runway, 22:1 slope to clear39 ft. tree, 850 ft. from runway, 16:1 slope to clear

Airport Ownership and Management from official FAA records

Ownership: Publicly-owned
Owner: CITY OF FOREST
P.O. BOX 298
FOREST, MS 39074
Phone 601-469-2921
THE HONORABLE NANCY CHAMBERS, MAYOR OF FOREST
Manager: RANDALL GEORGE
CITY OF FOREST, P.O.BOX 298
FOREST, MS 39074
Phone 601-469-2921
CITY HALL PHONE.

Airport Operational Statistics

Aircraft based on the field: 2
Single engine airplanes: 2
    
Aircraft operations: avg 20/week *
65% transient general aviation
35% local general aviation
* for 12-month period ending 15 March 2018

Instrument Procedures

There are no published instrument procedures at 2M4.

Some nearby airports with instrument procedures:

KJAN - Jackson-Medgar Wiley Evers International Airport (30 nm W)
KMBO - Bruce Campbell Field Airport (32 nm W)
KMPE - Philadelphia Municipal Airport (32 nm NE)
17M - Magee Municipal Airport (34 nm SW)
KHKS - Hawkins Field Airport (37 nm W)
 
Loc | Ops | Rwys | IFR | FBO | Links
Com | Nav | Svcs | Stats | Notes

AirNav Hotels Sweepstakes
 
Area around 2M4 (G V Montgomery Airport)
 
Road maps at: MapQuest Bing Google
 
Aerial photo
WARNING: Photo may not be current or correct
Aerial photo of 2M4 (G V Montgomery Airport)
Do you have a better or more recent aerial photo of G V Montgomery Airport that you would like to share? If so, please send us your photo.

 
Sectional chart

 
Airport distance calculator
Flying to G V Montgomery Airport? Find the distance to fly.

From to 2M4

Sunrise and sunset
Times for 26-Apr-2018
 Local
(UTC-5)
 Zulu
(UTC)
Morning civil twilight05:5210:52
Sunrise06:1711:17
Sunset19:3400:34
Evening civil twilight20:0001:00

Current date and time
Zulu (UTC)  26-Apr-2018 21:23:26
Local (UTC-5)  26-Apr-2018 16:23:26
 
METAR
KJAN 
30nm W 
262054Z 28006KT 10SM SCT028 SCT041 OVC050 17/11 A2989 RMK AO2 SLP119 T01720111 58005
KMBO 
32nm W 
262055Z AUTO 29005KT 10SM SCT026 SCT038 SCT047 17/11 A2990 RMK AO2 PWINO
KHKS 
37nm W 
262053Z 28007KT 10SM FEW028 SCT035 OVC050 17/11 A2991 RMK AO2 SLP120 T01720111 58007
KMEI 
37nm E 
262058Z 27009KT 10SM BKN033 OVC055 19/11 A2986 RMK AO2 SLP110 T01940111 58006
KJVW 
47nm W 
262055Z AUTO 9SM 17/12 A2991 RMK AO2
KNMM 
48nm E 
262056Z 26010G18KT 10SM FEW029 BKN050 19/11 A2985 RMK AO2 SLP117 T01890111 $
TAF
KJAN 
30nm W 
261757Z 2618/2718 30010G16KT P6SM SCT020 OVC035 FM262200 28008KT P6SM BKN035 FM270000 31007KT P6SM FEW025 SCT250 FM270900 30007KT P6SM BKN050 BKN250
KHKS 
37nm W 
261757Z 2618/2718 30010G16KT P6SM SCT020 OVC035 FM262200 28008KT P6SM BKN035 FM270000 31007KT P6SM FEW025 SCT250 FM270900 30007KT P6SM BKN050 BKN250
KMEI 
37nm E 
261757Z 2618/2718 29014G20KT P6SM BKN035 OVC050 FM262300 31010KT P6SM BKN050 FM270300 31007KT P6SM SCT050 BKN250 FM271000 33007KT P6SM BKN035 BKN250
NOTAMs
Click for the latest NOTAMs
NOTAMs are issued by the DoD/FAA and will open in a separate window not controlled by AirNav.

 

 
 

Would you like to see your business listed on this page?

 If your business provides an interesting product or service to pilots, flight crews, aircraft, or users of the G V Montgomery Airport, you should consider listing it here.  To start the listing process, click on the button below
 
Add a business
 

Other Pages about G V Montgomery Airport

Update a link
 
Copyright © AirNav, LLC. All rights reserved. Privacy Policy  Contact